Location: ??? ?????
(30.6482°N, 60.5850°E)
Time: 16:30:38
(UTC+00:00)

Meteor 2-17 Rocket - Pass Details

Date: 09 April 2020
Orbit: 935 x 956 km, 82.5° (Epoch: 05 June)

Event Time Altitude Azimuth Distance (km) Brightness Sun altitude
Rises 15:34:58 0° 358° (N) 3,637 7.8 -16.0°
Reaches altitude 10° 15:37:31 10° 2° (N) 2,689 7.0 -16.5°
Maximum altitude 15:43:35 60° 82° (E) 1,087 4.5 -17.8°
Enters shadow 15:48:17 17° 158° (SSE) 2,197 6.0 -18.7°
